Location: Rumah Geringgi
(3.1667°N, 113.1667°E)
Time: 20:30:41
(UTC+00:00)

ARIANE 6 FM1 Upper Stage - Pass Details

Date: 03 August 2024
Orbit: 566 x 594 km, 62.0° (Epoch: 19 September)

Event Time Altitude Azimuth Distance (km) Brightness Sun altitude
Rises 12:08:22 0° 346° (NNW) 2,816 6.7 -21.5°
Reaches altitude 10° 12:10:42 10° 352° (N) 1,914 5.7 -22.1°
Enters shadow 12:13:56 38° 31° (NNE) 897 3.5 -22.8°
